UAL197 RJAA-PGUM

Flight info

Callsign UAL197
Flight time 3h 16m
Altitude 38000
Route SAMUS Y84 HCE Y840 SABRI B586 CADDY/N0485F390 B586 UKATA VASKO B586 WINZR
Aircraft B77W/H-SDE1E2E3FGHIJ2J3J4J5M1RWXY/LB1D1

Departure

Time 2026-04-25 22:41
Airport Narita International Airport (RJAA)

Arrival

Time 2026-04-26 01:57
Airport Antonio B. Won Pat International Airport (PGUM)
Time Latitude Longitude Altitude Speed Heading
2026-04-25 22:28 35.75991 140.38496 149 ft 0 kts 61°
2026-04-25 22:32 35.75987 140.38487 149 ft 2 kts 61°
2026-04-25 22:32 35.75979 140.38470 149 ft 2 kts 61°
2026-04-25 22:32 35.75971 140.38452 149 ft 2 kts 61°
2026-04-25 22:33 35.75963 140.38435 149 ft 2 kts 73°
2026-04-25 22:33 35.75964 140.38415 149 ft 2 kts 111°
2026-04-25 22:33 35.75971 140.38397 149 ft 2 kts 123°
2026-04-25 22:33 35.75981 140.38381 149 ft 2 kts 147°
2026-04-25 22:34 35.75986 140.38378 149 ft 0 kts 151°
2026-04-25 22:37 35.75974 140.38386 149 ft 5 kts 151°
2026-04-25 22:37 35.75924 140.38423 149 ft 12 kts 148°
2026-04-25 22:37 35.75831 140.38490 149 ft 19 kts 152°
2026-04-25 22:37 35.75726 140.38435 149 ft 20 kts 250°
2026-04-25 22:38 35.75629 140.38391 149 ft 17 kts 156°
2026-04-25 22:38 35.75508 140.38481 149 ft 23 kts 149°
2026-04-25 22:38 35.75365 140.38584 149 ft 24 kts 150°
2026-04-25 22:38 35.75219 140.38689 149 ft 24 kts 150°
2026-04-25 22:39 35.75073 140.38794 150 ft 24 kts 149°
2026-04-25 22:39 35.74928 140.38900 150 ft 24 kts 151°
2026-04-25 22:39 35.74782 140.39004 150 ft 24 kts 149°
2026-04-25 22:39 35.74636 140.39109 149 ft 24 kts 150°
2026-04-25 22:40 35.74489 140.39214 149 ft 24 kts 156°
2026-04-25 22:40 35.74371 140.39106 147 ft 24 kts 263°
2026-04-25 22:40 35.74483 140.38963 147 ft 27 kts 329°
2026-04-25 22:40 35.74751 140.38770 150 ft 62 kts 330°
2026-04-25 22:41 35.75209 140.38445 148 ft 98 kts 331°
2026-04-25 22:41 35.76112 140.37791 228 ft 198 kts 329°
2026-04-25 22:41 35.77352 140.36871 1451 ft 216 kts 328°
2026-04-25 22:41 35.78568 140.35933 3334 ft 191 kts 332°
2026-04-25 22:42 35.79693 140.35143 4589 ft 184 kts 331°
2026-04-25 22:42 35.80843 140.34342 5464 ft 203 kts 330°
2026-04-25 22:42 35.82165 140.33408 6365 ft 226 kts 329°
2026-04-25 22:42 35.83598 140.32387 6911 ft 252 kts 329°
2026-04-25 22:43 35.85184 140.31245 6997 ft 270 kts 329°
2026-04-25 22:43 35.86803 140.30077 7009 ft 269 kts 329°
2026-04-25 22:43 35.88417 140.28904 7009 ft 268 kts 329°
2026-04-25 22:43 35.90023 140.27732 7005 ft 268 kts 328°
2026-04-25 22:44 35.91628 140.26561 7071 ft 269 kts 329°
2026-04-25 22:44 35.93214 140.25404 7862 ft 268 kts 328°
2026-04-25 22:44 35.94914 140.24438 8803 ft 275 kts 345°
2026-04-25 22:44 35.96835 140.24159 9912 ft 280 kts 358°
2026-04-25 22:45 35.98815 140.24272 10824 ft 292 kts
2026-04-25 22:45 36.00923 140.24671 11205 ft 323 kts
2026-04-25 22:45 36.03203 140.25424 11446 ft 356 kts 20°
2026-04-25 22:45 36.05316 140.27206 11888 ft 381 kts 47°
2026-04-25 22:46 36.06621 140.30100 12790 ft 395 kts 73°
2026-04-25 22:46 36.06846 140.33489 13847 ft 402 kts 98°
2026-04-25 22:46 36.06129 140.36831 14693 ft 405 kts 108°
2026-04-25 22:46 36.05414 140.40240 15437 ft 416 kts 100°
2026-04-25 22:47 36.04852 140.43735 16028 ft 419 kts 110°
2026-04-25 22:47 36.03389 140.46815 16782 ft 423 kts 134°
2026-04-25 22:47 36.01373 140.49426 17460 ft 425 kts 131°
2026-04-25 22:47 35.99641 140.52469 18168 ft 439 kts 123°
2026-04-25 22:48 35.98033 140.55678 18868 ft 440 kts 128°
2026-04-25 22:48 35.95967 140.58526 19486 ft 446 kts 139°
2026-04-25 22:48 35.93700 140.61155 20353 ft 449 kts 140°
2026-04-25 22:48 35.91461 140.63869 21218 ft 454 kts 139°
2026-04-25 22:49 35.89252 140.66691 22019 ft 459 kts 140°
2026-04-25 22:49 35.86808 140.69184 22727 ft 453 kts 154°
2026-04-25 22:49 35.84064 140.71099 23533 ft 452 kts 159°
2026-04-25 22:49 35.81274 140.72923 24277 ft 455 kts 159°
2026-04-25 22:50 35.78509 140.74788 24812 ft 463 kts 159°
2026-04-25 22:50 35.75676 140.76786 25293 ft 472 kts 158°
2026-04-25 22:50 35.72814 140.78851 25806 ft 479 kts 158°
2026-04-25 22:50 35.69895 140.80859 26312 ft 477 kts 163°
2026-04-25 22:51 35.66841 140.82429 26780 ft 475 kts 170°
2026-04-25 22:51 35.63699 140.83730 27290 ft 477 kts 173°
2026-04-25 22:51 35.60516 140.84954 27788 ft 482 kts 173°
2026-04-25 22:51 35.57341 140.86187 28269 ft 487 kts 173°
2026-04-25 22:52 35.54095 140.87497 28741 ft 493 kts 173°
2026-04-25 22:52 35.50823 140.88866 29177 ft 499 kts 173°
2026-04-25 22:52 35.47526 140.90279 29596 ft 504 kts 172°
2026-04-25 22:52 35.45330 140.91230 29869 ft 507 kts 173°
2026-04-25 22:53 35.40860 140.93171 30379 ft 512 kts 173°
2026-04-25 22:53 35.37499 140.94628 30804 ft 512 kts 173°
2026-04-25 22:53 35.34152 140.96079 31378 ft 508 kts 174°
2026-04-25 22:53 35.30832 140.97513 31986 ft 503 kts 175°
2026-04-25 22:54 35.27539 140.98927 32563 ft 500 kts 175°
2026-04-25 22:54 35.24301 141.00312 33055 ft 498 kts 176°
2026-04-25 22:54 35.21038 141.01689 33576 ft 491 kts 178°
2026-04-25 22:54 35.17795 141.02528 34077 ft 461 kts 190°
2026-04-25 22:55 35.14642 141.02782 34538 ft 451 kts 193°
2026-04-25 22:55 35.11501 141.02918 34841 ft 450 kts 193°
2026-04-25 22:55 35.08360 141.03045 35107 ft 453 kts 193°
2026-04-25 22:55 35.05199 141.03210 35412 ft 455 kts 192°
2026-04-25 22:56 35.02029 141.03418 35726 ft 456 kts 192°
2026-04-25 22:56 34.98885 141.03652 36021 ft 458 kts 192°
2026-04-25 22:56 34.95701 141.03903 36310 ft 459 kts 192°
2026-04-25 22:56 34.92509 141.04160 36598 ft 460 kts 192°
2026-04-25 22:57 34.89314 141.04415 36870 ft 461 kts 192°
2026-04-25 22:57 34.86112 141.04668 37115 ft 462 kts 192°
2026-04-25 22:57 34.79634 141.05170 37211 ft 468 kts 192°
2026-04-25 22:58 34.73154 141.05684 37218 ft 463 kts 192°
2026-04-25 22:58 34.66762 141.06179 37221 ft 462 kts 192°
2026-04-25 22:59 34.60418 141.06455 37220 ft 436 kts 203°
2026-04-25 22:59 34.57597 141.05546 37237 ft 407 kts 217°
2026-04-25 22:59 34.55116 141.03987 37238 ft 396 kts 225°
2026-04-25 23:00 34.53006 141.01922 37234 ft 385 kts 234°
2026-04-25 23:00 34.51087 140.99621 37221 ft 391 kts 234°
2026-04-25 23:00 34.47182 140.94945 37224 ft 397 kts 234°
2026-04-25 23:01 34.43229 140.90299 37224 ft 398 kts 234°
2026-04-25 23:01 34.39245 140.85651 37218 ft 397 kts 234°
2026-04-25 23:02 34.35277 140.81027 37217 ft 395 kts 234°
2026-04-25 23:02 34.31321 140.76433 37220 ft 393 kts 234°
2026-04-25 23:03 34.27386 140.71866 37207 ft 391 kts 234°
2026-04-25 23:03 34.23480 140.67341 37214 ft 391 kts 234°
2026-04-25 23:04 34.20187 140.63528 37222 ft 391 kts 234°
2026-04-25 23:04 34.15609 140.58235 37213 ft 392 kts 233°
2026-04-25 23:05 34.11662 140.53679 37220 ft 392 kts 233°
2026-04-25 23:05 34.07714 140.49128 37217 ft 393 kts 233°
2026-04-25 23:06 34.03756 140.44571 37209 ft 393 kts 233°
2026-04-25 23:06 34.00463 140.40784 37209 ft 394 kts 233°
2026-04-25 23:07 33.95847 140.35483 37209 ft 394 kts 233°
2026-04-25 23:07 33.92515 140.31662 37208 ft 394 kts 233°
2026-04-25 23:08 33.88561 140.27132 37204 ft 395 kts 233°
2026-04-25 23:08 33.84557 140.22596 37203 ft 398 kts 230°
2026-04-25 23:09 33.82248 140.20668 37186 ft 413 kts 219°
2026-04-25 23:09 33.79650 140.19135 37208 ft 416 kts 218°
2026-04-25 23:09 33.74440 140.16103 37204 ft 416 kts 218°
2026-04-25 23:10 33.69242 140.13040 37192 ft 416 kts 218°
2026-04-25 23:10 33.64064 140.09963 37190 ft 415 kts 218°
2026-04-25 23:11 33.58925 140.06904 37189 ft 414 kts 218°
2026-04-25 23:11 33.53760 140.03832 37189 ft 414 kts 218°
2026-04-25 23:12 33.48599 140.00768 37187 ft 413 kts 218°
2026-04-25 23:12 33.43434 139.97705 37185 ft 413 kts 218°
2026-04-25 23:13 33.38288 139.94659 37183 ft 412 kts 217°
2026-04-25 23:13 33.33178 139.91637 37180 ft 411 kts 217°
2026-04-25 23:14 33.28045 139.88605 37175 ft 411 kts 217°
2026-04-25 23:14 33.22921 139.85582 37181 ft 410 kts 217°
2026-04-25 23:15 33.17804 139.82568 37178 ft 409 kts 217°
2026-04-25 23:15 33.12563 139.79808 37179 ft 418 kts 210°
2026-04-25 23:16 33.06905 139.77890 37173 ft 430 kts 203°
2026-04-25 23:16 33.01001 139.76715 37162 ft 432 kts 201°
2026-04-25 23:17 32.95069 139.75607 37164 ft 430 kts 201°
2026-04-25 23:17 32.89172 139.74470 37164 ft 428 kts 201°
2026-04-25 23:18 32.83296 139.73324 37156 ft 427 kts 201°
2026-04-25 23:18 32.77321 139.72565 37160 ft 440 kts 194°
2026-04-25 23:19 32.71109 139.72907 37154 ft 455 kts 186°
2026-04-25 23:19 32.64813 139.73894 37160 ft 456 kts 186°
2026-04-25 23:20 32.58547 139.74887 37151 ft 456 kts 186°
2026-04-25 23:20 32.52260 139.75843 37149 ft 455 kts 186°
2026-04-25 23:21 32.45968 139.76787 37133 ft 456 kts 186°
2026-04-25 23:21 32.39642 139.77740 37146 ft 458 kts 186°
2026-04-25 23:22 32.33369 139.78699 37151 ft 457 kts 186°
2026-04-25 23:23 32.23916 139.80140 37142 ft 456 kts 186°
2026-04-25 23:23 32.17620 139.81095 37133 ft 455 kts 186°
2026-04-25 23:24 32.11377 139.82040 37141 ft 455 kts 185°
2026-04-25 23:24 32.05090 139.82990 37132 ft 456 kts 185°
2026-04-25 23:25 31.98788 139.83941 37130 ft 456 kts 185°
2026-04-25 23:25 31.92489 139.84892 37133 ft 456 kts 185°
2026-04-25 23:26 31.86193 139.85840 37128 ft 456 kts 185°
2026-04-25 23:26 31.79888 139.86789 37116 ft 457 kts 185°
2026-04-25 23:27 31.73616 139.87732 37116 ft 456 kts 185°
2026-04-25 23:27 31.67311 139.88679 37116 ft 456 kts 185°
2026-04-25 23:28 31.61013 139.89622 37117 ft 456 kts 185°
2026-04-25 23:28 31.54712 139.90565 37114 ft 456 kts 185°
2026-04-25 23:29 31.48414 139.91506 37115 ft 456 kts 185°
2026-04-25 23:29 31.42218 139.92438 37105 ft 443 kts 183°
2026-04-25 23:30 31.36158 139.93347 37102 ft 438 kts 183°
2026-04-25 23:30 31.30094 139.94240 37100 ft 439 kts 183°
2026-04-25 23:31 31.24018 139.95138 37113 ft 441 kts 183°
2026-04-25 23:31 31.17950 139.96038 37101 ft 443 kts 183°
2026-04-25 23:32 31.11811 139.96950 37096 ft 445 kts 182°
2026-04-25 23:32 31.05648 139.97864 37095 ft 446 kts 182°
2026-04-25 23:33 30.99480 139.98950 37091 ft 454 kts 178°
2026-04-25 23:33 30.93374 140.01029 37094 ft 462 kts 173°
2026-04-25 23:34 30.87237 140.03300 37088 ft 461 kts 173°
2026-04-25 23:34 30.81104 140.05545 37088 ft 461 kts 173°
2026-04-25 23:35 30.75024 140.07748 37087 ft 460 kts 173°
2026-04-25 23:35 30.68904 140.09956 37083 ft 460 kts 173°
2026-04-25 23:36 30.62785 140.12160 37081 ft 460 kts 173°
2026-04-25 23:36 30.56678 140.14359 37079 ft 460 kts 173°
2026-04-25 23:37 30.50602 140.16544 37083 ft 460 kts 173°
2026-04-25 23:37 30.44478 140.18743 37090 ft 460 kts 173°
2026-04-25 23:38 30.38353 140.20940 37081 ft 461 kts 172°
2026-04-25 23:38 30.32224 140.23136 37078 ft 461 kts 172°
2026-04-25 23:39 30.26089 140.25331 37079 ft 462 kts 172°
2026-04-25 23:39 30.19986 140.27512 37081 ft 462 kts 172°
2026-04-25 23:40 30.13835 140.29707 37080 ft 462 kts 172°
2026-04-25 23:40 30.07675 140.31903 37080 ft 463 kts 172°
2026-04-25 23:41 30.01522 140.34093 37081 ft 463 kts 172°
2026-04-25 23:41 29.95389 140.36271 37079 ft 463 kts 172°
2026-04-25 23:42 29.89225 140.38456 37069 ft 464 kts 172°
2026-04-25 23:42 29.83050 140.40643 37073 ft 464 kts 172°
2026-04-25 23:43 29.76863 140.42832 37076 ft 464 kts 172°
2026-04-25 23:43 29.70723 140.45001 37073 ft 464 kts 172°
2026-04-25 23:44 29.64530 140.47187 37073 ft 465 kts 172°
2026-04-25 23:44 29.58347 140.49366 37072 ft 465 kts 171°
2026-04-25 23:45 29.52164 140.51543 37074 ft 465 kts 171°
2026-04-25 23:45 29.45963 140.53723 37081 ft 466 kts 171°
2026-04-25 23:46 29.39757 140.55902 37071 ft 466 kts 171°
2026-04-25 23:46 29.33589 140.58065 37071 ft 467 kts 171°
2026-04-25 23:47 29.27370 140.60243 37072 ft 467 kts 171°
2026-04-25 23:47 29.21141 140.62422 37067 ft 468 kts 171°
2026-04-25 23:48 29.14915 140.64597 37069 ft 468 kts 171°
2026-04-25 23:48 29.08660 140.66778 37406 ft 470 kts 171°
2026-04-25 23:48 29.05576 140.67854 37795 ft 468 kts 171°
2026-04-25 23:49 29.02473 140.68937 38210 ft 465 kts 171°
2026-04-25 23:49 28.99376 140.70018 38580 ft 464 kts 171°
2026-04-25 23:49 28.96288 140.71093 38871 ft 463 kts 171°
2026-04-25 23:49 28.93191 140.72168 38987 ft 466 kts 171°
2026-04-25 23:50 28.90075 140.73247 39024 ft 469 kts 171°
2026-04-25 23:50 28.83841 140.75410 39061 ft 466 kts 171°
2026-04-25 23:51 28.77662 140.77558 39060 ft 462 kts 171°
2026-04-25 23:51 28.71516 140.79686 39066 ft 461 kts 171°
2026-04-25 23:52 28.65375 140.81808 39071 ft 461 kts 171°
2026-04-25 23:52 28.59225 140.83930 39075 ft 462 kts 171°
2026-04-25 23:53 28.53057 140.86057 39074 ft 464 kts 171°
2026-04-25 23:53 28.46863 140.88191 39073 ft 466 kts 171°
2026-04-25 23:54 28.40644 140.90331 39075 ft 468 kts 170°
2026-04-25 23:54 28.34410 140.92475 39075 ft 469 kts 170°
2026-04-25 23:55 28.28186 140.94612 39073 ft 470 kts 170°
2026-04-25 23:55 28.21920 140.96761 39073 ft 471 kts 170°
2026-04-25 23:56 28.16658 140.98564 39070 ft 471 kts 170°
2026-04-25 23:56 28.10414 141.00700 39072 ft 471 kts 170°
2026-04-25 23:57 28.04129 141.02848 39072 ft 471 kts 170°
2026-04-25 23:57 27.97850 141.04991 39074 ft 471 kts 170°
2026-04-25 23:58 27.91566 141.07133 39071 ft 471 kts 170°
2026-04-25 23:58 27.85288 141.09271 39075 ft 471 kts 169°
2026-04-25 23:59 27.79047 141.11393 39074 ft 471 kts 169°
2026-04-25 23:59 27.72770 141.13525 39074 ft 471 kts 169°
2026-04-26 00:00 27.66474 141.15661 39082 ft 472 kts 169°
2026-04-26 00:00 27.60173 141.17796 39079 ft 472 kts 169°
2026-04-26 00:01 27.53914 141.19914 39072 ft 472 kts 169°
2026-04-26 00:01 27.47612 141.22044 39073 ft 473 kts 169°
2026-04-26 00:02 27.41311 141.24171 39076 ft 473 kts 169°
2026-04-26 00:02 27.34998 141.26300 39073 ft 473 kts 169°
2026-04-26 00:03 27.28681 141.28428 39077 ft 474 kts 169°
2026-04-26 00:03 27.22356 141.30556 39072 ft 474 kts 169°
2026-04-26 00:04 27.16035 141.32680 39081 ft 474 kts 169°
2026-04-26 00:04 27.09749 141.34789 39073 ft 474 kts 169°
2026-04-26 00:05 27.03405 141.36916 39078 ft 474 kts 169°
2026-04-26 00:05 26.97065 141.39039 39077 ft 475 kts 169°
2026-04-26 00:06 26.90730 141.41158 39081 ft 475 kts 169°
2026-04-26 00:06 26.84435 141.43261 39080 ft 475 kts 169°
2026-04-26 00:07 26.78097 141.45375 39091 ft 475 kts 169°
2026-04-26 00:07 26.71755 141.47489 39086 ft 475 kts 169°
2026-04-26 00:08 26.65412 141.49600 39083 ft 475 kts 169°
2026-04-26 00:08 26.59063 141.51711 39073 ft 475 kts 169°
2026-04-26 00:09 26.52718 141.53819 39084 ft 475 kts 169°
2026-04-26 00:09 26.46415 141.55909 39086 ft 475 kts 168°
2026-04-26 00:10 26.40082 141.58008 39081 ft 475 kts 168°
2026-04-26 00:10 26.33750 141.60104 39089 ft 474 kts 169°
2026-04-26 00:11 26.27410 141.62200 39088 ft 474 kts 168°
2026-04-26 00:11 26.21080 141.64290 39085 ft 474 kts 168°
2026-04-26 00:12 26.14794 141.66363 39092 ft 474 kts 168°
2026-04-26 00:12 26.08462 141.68449 39092 ft 474 kts 168°
2026-04-26 00:13 26.02131 141.70533 39087 ft 474 kts 168°
2026-04-26 00:13 25.95794 141.72616 39090 ft 474 kts 168°
2026-04-26 00:14 25.89456 141.74697 39090 ft 475 kts 168°
2026-04-26 00:14 25.83155 141.76764 39091 ft 475 kts 168°
2026-04-26 00:15 25.76811 141.78842 39094 ft 475 kts 168°
2026-04-26 00:15 25.70470 141.80917 39094 ft 475 kts 168°
2026-04-26 00:16 25.64129 141.82990 39095 ft 475 kts 168°
2026-04-26 00:16 25.57792 141.85060 39095 ft 474 kts 168°
2026-04-26 00:17 25.51455 141.87126 39099 ft 474 kts 168°
2026-04-26 00:17 25.45155 141.89179 39095 ft 474 kts 168°
2026-04-26 00:18 25.38822 141.91241 39097 ft 474 kts 168°
2026-04-26 00:18 25.32478 141.93303 39098 ft 474 kts 168°
2026-04-26 00:19 25.26143 141.95360 39098 ft 474 kts 168°
2026-04-26 00:19 25.19810 141.97415 39099 ft 474 kts 168°
2026-04-26 00:20 25.13480 141.99467 39101 ft 474 kts 168°
2026-04-26 00:20 25.07182 142.01506 39102 ft 474 kts 168°
2026-04-26 00:21 25.00839 142.03552 39099 ft 474 kts 169°
2026-04-26 00:21 24.94445 142.05200 39103 ft 471 kts 172°
2026-04-26 00:22 24.88014 142.06709 39105 ft 472 kts 172°
2026-04-26 00:22 24.81585 142.08253 39106 ft 472 kts 172°
2026-04-26 00:23 24.75161 142.09813 39103 ft 473 kts 172°
2026-04-26 00:23 24.68776 142.11374 39104 ft 473 kts 172°
2026-04-26 00:24 24.62339 142.12949 39106 ft 473 kts 172°
2026-04-26 00:24 24.55898 142.14523 39103 ft 473 kts 172°
2026-04-26 00:25 24.49509 142.16081 39100 ft 473 kts 172°
2026-04-26 00:25 24.43074 142.17648 39099 ft 473 kts 172°
2026-04-26 00:26 24.36638 142.19214 39100 ft 473 kts 172°
2026-04-26 00:26 24.30192 142.20781 39102 ft 474 kts 172°
2026-04-26 00:27 24.23755 142.22344 39104 ft 474 kts 172°
2026-04-26 00:27 24.17351 142.23897 39102 ft 474 kts 172°
2026-04-26 00:28 24.10905 142.25459 39104 ft 474 kts 172°
2026-04-26 00:28 24.04459 142.27019 39103 ft 474 kts 172°
2026-04-26 00:29 23.98009 142.28579 39102 ft 475 kts 172°
2026-04-26 00:29 23.91543 142.30140 39098 ft 475 kts 172°
2026-04-26 00:30 23.85130 142.31688 39103 ft 475 kts 172°
2026-04-26 00:30 23.78675 142.33244 39102 ft 475 kts 172°
2026-04-26 00:31 23.72213 142.34800 39102 ft 475 kts 172°
2026-04-26 00:31 23.65752 142.36354 39100 ft 476 kts 172°
2026-04-26 00:32 23.59281 142.37910 39099 ft 476 kts 172°
2026-04-26 00:32 23.49612 142.40230 39098 ft 476 kts 172°
2026-04-26 00:33 23.43131 142.41784 39096 ft 476 kts 172°
2026-04-26 00:33 23.36653 142.43335 39097 ft 477 kts 172°
2026-04-26 00:34 23.30174 142.44886 39095 ft 477 kts 172°
2026-04-26 00:34 23.23692 142.46435 39096 ft 477 kts 172°
2026-04-26 00:35 23.17192 142.47987 39093 ft 478 kts 172°
2026-04-26 00:35 23.10736 142.49527 39096 ft 478 kts 172°
2026-04-26 00:36 23.04233 142.51076 39093 ft 478 kts 172°
2026-04-26 00:36 22.97723 142.52626 39095 ft 479 kts 172°
2026-04-26 00:37 22.91205 142.54176 39092 ft 479 kts 172°
2026-04-26 00:37 22.84722 142.55717 39091 ft 479 kts 172°
2026-04-26 00:38 22.78193 142.57266 39091 ft 480 kts 172°
2026-04-26 00:38 22.71671 142.58813 39090 ft 480 kts 172°
2026-04-26 00:39 22.65129 142.60363 39089 ft 481 kts 172°
2026-04-26 00:39 22.59683 142.61652 39089 ft 481 kts 172°
2026-04-26 00:40 22.52070 142.63452 39089 ft 481 kts 172°
2026-04-26 00:40 22.45518 142.64999 39088 ft 482 kts 172°
2026-04-26 00:41 22.38961 142.66547 39088 ft 482 kts 172°
2026-04-26 00:41 22.33504 142.67834 39087 ft 482 kts 172°
2026-04-26 00:42 22.26944 142.69379 39089 ft 482 kts 172°
2026-04-26 00:42 22.20380 142.70924 39087 ft 483 kts 172°
2026-04-26 00:43 22.13814 142.72467 39083 ft 483 kts 172°
2026-04-26 00:43 22.07237 142.74012 39090 ft 483 kts 172°
2026-04-26 00:44 22.00698 142.75546 39088 ft 484 kts 172°
2026-04-26 00:44 21.94117 142.77089 39083 ft 484 kts 172°
2026-04-26 00:45 21.87529 142.78632 39089 ft 485 kts 172°
2026-04-26 00:45 21.80929 142.80177 39084 ft 485 kts 172°
2026-04-26 00:46 21.74320 142.81722 39081 ft 486 kts 172°
2026-04-26 00:46 21.67714 142.83265 39082 ft 486 kts 172°
2026-04-26 00:47 21.61096 142.84809 39081 ft 487 kts 172°
2026-04-26 00:47 21.54477 142.86352 39080 ft 487 kts 172°
2026-04-26 00:48 21.47890 142.87886 39079 ft 487 kts 172°
2026-04-26 00:48 21.41259 142.89429 39079 ft 488 kts 172°
2026-04-26 00:49 21.34617 142.90973 39081 ft 488 kts 172°
2026-04-26 00:49 21.27971 142.92517 39081 ft 488 kts 172°
2026-04-26 00:50 21.21326 142.94059 39079 ft 489 kts 172°
2026-04-26 00:50 21.14715 142.95592 39079 ft 489 kts 171°
2026-04-26 00:51 21.08062 142.97133 39078 ft 489 kts 171°
2026-04-26 00:51 21.01392 142.98677 39076 ft 489 kts 171°
2026-04-26 00:52 20.94740 143.00273 39075 ft 490 kts 170°
2026-04-26 00:52 20.88146 143.01943 39076 ft 490 kts 170°
2026-04-26 00:53 20.81466 143.03638 39077 ft 490 kts 170°
2026-04-26 00:53 20.74858 143.05300 39075 ft 491 kts 170°
2026-04-26 00:54 20.68204 143.06964 39074 ft 491 kts 170°
2026-04-26 00:54 20.61548 143.08626 39073 ft 491 kts 170°
2026-04-26 00:55 20.54886 143.10288 39074 ft 492 kts 170°
2026-04-26 00:55 20.48225 143.11949 39078 ft 492 kts 170°
2026-04-26 00:56 20.41544 143.13614 39069 ft 492 kts 170°
2026-04-26 00:56 20.34910 143.15266 39067 ft 493 kts 170°
2026-04-26 00:57 20.28225 143.16929 39062 ft 493 kts 170°
2026-04-26 00:57 20.21524 143.18594 39067 ft 494 kts 170°
2026-04-26 00:58 20.14834 143.20255 39070 ft 494 kts 170°
2026-04-26 00:58 20.08121 143.21921 39062 ft 494 kts 170°
2026-04-26 00:59 20.01452 143.23574 39057 ft 495 kts 169°
2026-04-26 00:59 19.94741 143.25236 39065 ft 495 kts 169°
2026-04-26 01:00 19.88031 143.26896 39059 ft 495 kts 169°
2026-04-26 01:00 19.81305 143.28559 39059 ft 495 kts 169°
2026-04-26 01:01 19.74618 143.30211 39052 ft 496 kts 169°
2026-04-26 01:01 19.67887 143.31872 39060 ft 496 kts 169°
2026-04-26 01:02 19.61153 143.33532 39058 ft 496 kts 169°
2026-04-26 01:02 19.54416 143.35192 39053 ft 496 kts 169°
2026-04-26 01:03 19.47725 143.36839 39056 ft 497 kts 169°
2026-04-26 01:03 19.40987 143.38496 39062 ft 497 kts 169°
2026-04-26 01:04 19.34243 143.40154 39066 ft 497 kts 169°
2026-04-26 01:04 19.27491 143.41812 39052 ft 498 kts 169°
2026-04-26 01:05 19.20739 143.43468 39051 ft 498 kts 169°
2026-04-26 01:05 19.13977 143.45126 39056 ft 498 kts 169°
2026-04-26 01:06 19.07260 143.46771 39050 ft 499 kts 169°
2026-04-26 01:06 19.00493 143.48427 39045 ft 499 kts 169°
2026-04-26 01:07 18.93724 143.50082 39051 ft 499 kts 169°
2026-04-26 01:07 18.86963 143.51734 39046 ft 499 kts 169°
2026-04-26 01:08 18.80189 143.53387 39053 ft 499 kts 169°
2026-04-26 01:08 18.73409 143.55041 39054 ft 499 kts 169°
2026-04-26 01:09 18.66629 143.56693 39045 ft 500 kts 169°
2026-04-26 01:09 18.59896 143.58332 39048 ft 500 kts 169°
2026-04-26 01:10 18.53113 143.59983 39045 ft 500 kts 169°
2026-04-26 01:10 18.46337 143.61630 39043 ft 500 kts 169°
2026-04-26 01:11 18.39556 143.63277 39037 ft 500 kts 168°
2026-04-26 01:11 18.32775 143.64923 39037 ft 500 kts 168°
2026-04-26 01:12 18.25981 143.66570 39041 ft 500 kts 168°
2026-04-26 01:12 18.19190 143.68216 39040 ft 501 kts 168°
2026-04-26 01:13 18.12390 143.69862 39033 ft 501 kts 168°
2026-04-26 01:13 18.05600 143.71505 39036 ft 501 kts 168°
2026-04-26 01:14 17.98799 143.73149 39033 ft 501 kts 168°
2026-04-26 01:14 17.92039 143.74782 39035 ft 501 kts 168°
2026-04-26 01:15 17.85240 143.76424 39028 ft 501 kts 168°
2026-04-26 01:15 17.78428 143.78067 39040 ft 502 kts 168°
2026-04-26 01:16 17.71609 143.79710 39031 ft 502 kts 168°
2026-04-26 01:16 17.64842 143.81340 39035 ft 502 kts 168°
2026-04-26 01:17 17.58024 143.82981 39032 ft 502 kts 168°
2026-04-26 01:17 17.51199 143.84570 39035 ft 503 kts 169°
2026-04-26 01:18 17.44343 143.86087 39029 ft 503 kts 169°
2026-04-26 01:18 17.37490 143.87601 39027 ft 503 kts 169°
2026-04-26 01:19 17.30638 143.89126 39022 ft 503 kts 168°
2026-04-26 01:19 17.23774 143.90659 39023 ft 504 kts 168°
2026-04-26 01:20 17.16958 143.92181 39023 ft 504 kts 168°
2026-04-26 01:20 17.10091 143.93713 39023 ft 504 kts 168°
2026-04-26 01:21 17.03221 143.95244 39024 ft 505 kts 168°
2026-04-26 01:21 16.96352 143.96773 39021 ft 505 kts 168°
2026-04-26 01:22 16.89473 143.98303 39020 ft 505 kts 168°
2026-04-26 01:22 16.82585 143.99834 39015 ft 506 kts 168°
2026-04-26 01:23 16.75735 144.01356 39017 ft 506 kts 168°
2026-04-26 01:23 16.68835 144.02888 39014 ft 506 kts 168°
2026-04-26 01:24 16.61943 144.04416 39019 ft 507 kts 168°
2026-04-26 01:24 16.55034 144.05948 39017 ft 507 kts 168°
2026-04-26 01:25 16.48134 144.07476 39011 ft 507 kts 168°
2026-04-26 01:25 16.41228 144.09005 39015 ft 507 kts 168°
2026-04-26 01:26 16.34374 144.10521 39010 ft 507 kts 168°
2026-04-26 01:26 16.27460 144.12049 39007 ft 507 kts 168°
2026-04-26 01:27 16.20544 144.13576 39006 ft 507 kts 168°
2026-04-26 01:27 16.13634 144.15101 39002 ft 507 kts 168°
2026-04-26 01:28 16.07882 144.16370 39006 ft 508 kts 168°
2026-04-26 01:28 15.99837 144.18143 39002 ft 508 kts 168°
2026-04-26 01:29 15.94050 144.19417 39009 ft 508 kts 168°
2026-04-26 01:29 15.87134 144.20939 39005 ft 508 kts 168°
2026-04-26 01:30 15.80226 144.22459 39001 ft 508 kts 168°
2026-04-26 01:30 15.73356 144.23969 39000 ft 508 kts 168°
2026-04-26 01:31 15.66437 144.25488 39007 ft 508 kts 168°
2026-04-26 01:31 15.59522 144.27006 38997 ft 508 kts 168°
2026-04-26 01:32 15.52597 144.28525 39000 ft 508 kts 168°
2026-04-26 01:32 15.45685 144.30040 38995 ft 508 kts 168°
2026-04-26 01:33 15.38809 144.31546 39000 ft 507 kts 168°
2026-04-26 01:33 15.31899 144.33059 38999 ft 507 kts 168°
2026-04-26 01:34 15.24992 144.34570 38994 ft 507 kts 168°
2026-04-26 01:34 15.18081 144.36081 38624 ft 513 kts 168°
2026-04-26 01:35 15.14562 144.36850 37779 ft 518 kts 168°
2026-04-26 01:35 15.11038 144.37620 37005 ft 516 kts 168°
2026-04-26 01:35 15.07509 144.38287 36214 ft 516 kts 172°
2026-04-26 01:35 15.03950 144.38761 35352 ft 516 kts 173°
2026-04-26 01:36 15.00372 144.39199 34381 ft 521 kts 173°
2026-04-26 01:36 14.96752 144.39630 33277 ft 525 kts 173°
2026-04-26 01:36 14.93112 144.40065 32173 ft 528 kts 173°
2026-04-26 01:37 14.85836 144.40958 30165 ft 528 kts 173°
2026-04-26 01:37 14.82199 144.41413 29287 ft 523 kts 172°
2026-04-26 01:37 14.78610 144.41866 28488 ft 516 kts 172°
2026-04-26 01:37 14.75059 144.42315 27738 ft 510 kts 172°
2026-04-26 01:38 14.71548 144.42758 27016 ft 504 kts 172°
2026-04-26 01:38 14.68088 144.43195 26303 ft 498 kts 172°
2026-04-26 01:38 14.64655 144.43628 25590 ft 493 kts 171°
2026-04-26 01:38 14.61258 144.44057 24872 ft 489 kts 171°
2026-04-26 01:39 14.57929 144.44476 24176 ft 485 kts 171°
2026-04-26 01:39 14.54619 144.44892 23452 ft 469 kts 171°
2026-04-26 01:39 14.51440 144.45289 22756 ft 444 kts 171°
2026-04-26 01:39 14.48448 144.45662 22199 ft 421 kts 171°
2026-04-26 01:40 14.45636 144.46013 21598 ft 406 kts 171°
2026-04-26 01:40 14.42818 144.46369 21047 ft 412 kts 171°
2026-04-26 01:40 14.39920 144.46740 20449 ft 427 kts 171°
2026-04-26 01:40 14.36927 144.47121 19801 ft 437 kts 171°
2026-04-26 01:41 14.33901 144.47503 19145 ft 437 kts 172°
2026-04-26 01:41 14.30878 144.47881 18492 ft 435 kts 172°
2026-04-26 01:41 14.27878 144.48256 17778 ft 433 kts 172°
2026-04-26 01:41 14.24900 144.48629 17101 ft 429 kts 172°
2026-04-26 01:42 14.21953 144.48998 16462 ft 424 kts 172°
2026-04-26 01:42 14.19031 144.49364 15827 ft 420 kts 172°
2026-04-26 01:42 14.16143 144.49726 15226 ft 415 kts 172°
2026-04-26 01:42 14.13334 144.50079 14604 ft 397 kts 173°
2026-04-26 01:43 14.10580 144.50416 14033 ft 412 kts 172°
2026-04-26 01:43 14.07701 144.50764 13550 ft 413 kts 173°
2026-04-26 01:43 14.04882 144.51114 13133 ft 402 kts 173°
2026-04-26 01:43 14.02136 144.51462 12780 ft 391 kts 173°
2026-04-26 01:44 13.99468 144.51802 12354 ft 383 kts 173°
2026-04-26 01:44 13.96841 144.52136 11939 ft 376 kts 172°
2026-04-26 01:44 13.94299 144.52457 11832 ft 361 kts 172°
2026-04-26 01:44 13.91898 144.52590 11653 ft 339 kts 185°
2026-04-26 01:45 13.89686 144.52087 11473 ft 313 kts 197°
2026-04-26 01:45 13.87688 144.51371 11169 ft 296 kts 199°
2026-04-26 01:45 13.85795 144.50635 10697 ft 287 kts 200°
2026-04-26 01:45 13.83942 144.49901 10130 ft 284 kts 200°
2026-04-26 01:46 13.82103 144.49167 9488 ft 283 kts 200°
2026-04-26 01:46 13.80269 144.48425 8807 ft 283 kts 200°
2026-04-26 01:46 13.78448 144.47674 8188 ft 281 kts 200°
2026-04-26 01:46 13.76651 144.46924 7571 ft 280 kts 200°
2026-04-26 01:47 13.74812 144.46275 6960 ft 280 kts 185°
2026-04-26 01:47 13.72894 144.46252 6547 ft 278 kts 172°
2026-04-26 01:47 13.70977 144.46431 6258 ft 275 kts 171°
2026-04-26 01:47 13.69097 144.46656 5981 ft 266 kts 165°
2026-04-26 01:48 13.67369 144.47301 5542 ft 264 kts 151°
2026-04-26 01:48 13.65745 144.48099 5373 ft 250 kts 150°
2026-04-26 01:48 13.64236 144.48834 5158 ft 233 kts 150°
2026-04-26 01:48 13.62797 144.49528 4772 ft 229 kts 150°
2026-04-26 01:49 13.61347 144.50224 4382 ft 230 kts 150°
2026-04-26 01:49 13.59903 144.50915 4134 ft 227 kts 150°
2026-04-26 01:49 13.58484 144.51589 3896 ft 223 kts 150°
2026-04-26 01:49 13.57080 144.52251 3645 ft 221 kts 150°
2026-04-26 01:50 13.55686 144.52904 3348 ft 220 kts 150°
2026-04-26 01:50 13.54290 144.53551 3062 ft 219 kts 150°
2026-04-26 01:50 13.52899 144.54195 2727 ft 220 kts 150°
2026-04-26 01:50 13.51496 144.54851 2387 ft 222 kts 150°
2026-04-26 01:51 13.50097 144.55510 2119 ft 220 kts 150°
2026-04-26 01:51 13.48734 144.56151 2056 ft 213 kts 150°
2026-04-26 01:51 13.47369 144.56792 2027 ft 219 kts 150°
2026-04-26 01:51 13.45994 144.57442 2016 ft 222 kts 150°
2026-04-26 01:52 13.44638 144.58167 1989 ft 216 kts 136°
2026-04-26 01:52 13.43825 144.59381 2017 ft 204 kts 102°
2026-04-26 01:52 13.43631 144.60801 2021 ft 200 kts 91°
2026-04-26 01:52 13.43557 144.62237 2007 ft 201 kts 90°
2026-04-26 01:53 13.43489 144.63668 2018 ft 199 kts 90°
2026-04-26 01:53 13.43398 144.65101 2066 ft 205 kts 92°
2026-04-26 01:53 13.43303 144.66606 1985 ft 212 kts 90°
2026-04-26 01:53 13.43407 144.67996 2004 ft 177 kts 72°
2026-04-26 01:54 13.43773 144.69083 1984 ft 146 kts 70°
2026-04-26 01:54 13.44096 144.69985 2005 ft 125 kts 67°
2026-04-26 01:54 13.44446 144.70813 1852 ft 126 kts 65°
2026-04-26 01:54 13.44811 144.71617 1749 ft 121 kts 65°
2026-04-26 01:55 13.45174 144.72447 1944 ft 132 kts 65°
2026-04-26 01:55 13.45576 144.73315 1719 ft 140 kts 62°
2026-04-26 01:55 13.46001 144.74181 1433 ft 127 kts 64°
2026-04-26 01:55 13.46341 144.74975 1303 ft 126 kts 64°
2026-04-26 01:56 13.46716 144.75813 939 ft 129 kts 64°
2026-04-26 01:56 13.47088 144.76633 687 ft 125 kts 65°
2026-04-26 01:56 13.47466 144.77449 515 ft 130 kts 64°
2026-04-26 01:56 13.47843 144.78290 361 ft 126 kts 64°
2026-04-26 01:57 13.48186 144.79037 285 ft 103 kts 66°
2026-04-26 01:57 13.48426 144.79562 288 ft 59 kts 64°
2026-04-26 01:57 13.48589 144.79923 298 ft 51 kts 65°
2026-04-26 01:57 13.48702 144.80154 304 ft 30 kts 56°
2026-04-26 01:58 13.48849 144.80303 305 ft 30 kts 34°
2026-04-26 01:58 13.49008 144.80440 306 ft 30 kts 54°
2026-04-26 01:58 13.49113 144.80624 305 ft 30 kts 60°
2026-04-26 01:58 13.49212 144.80813 306 ft 28 kts 63°
2026-04-26 01:59 13.49292 144.80871 305 ft 11 kts 331°
2026-04-26 01:59 13.49325 144.80852 307 ft 0 kts 333°